Skip Page Navigation
NASA JPL Caltech
NASA Logo - Jet Propulsion Laboratory + View the NASA Portal
+ Center for Near-Earth Object Studies
JPL Home Earth Solar System Stars & Galaxies Technology
JPL Solar System Dynamics
BODIES ORBITS EPHEMERIDES TOOLS PHYSICAL DATA DISCOVERY FAQ SITE MAP
JPL Small-Body Database Browser
Search: [ help ]  
79182 (1993 FS82)
Classification: Main-belt Asteroid          SPK-ID: 2079182
Ephemeris | Orbit Diagram | Orbital Elements | Mission Design | Physical Parameters | Discovery Circumstances | Close-Approach Data ]

[ show orbit diagram ]
Orbital Elements at Epoch 2459000.5 (2020-May-31.0) TDB
Reference: JPL 24 (heliocentric ecliptic J2000)
 Element Value Uncertainty (1-sigma)   Units 
e .07922961576418967 4.7894e-08  
a 3.16481359656257 2.6411e-08 au
q 2.914066631341634 1.5408e-07 au
i 5.238967980983399 4.9277e-06 deg
node 44.03381925694002 5.6962e-05 deg
peri 279.6080630137566 6.5929e-05 deg
M 170.153656268724 3.6056e-05 deg
tp 2458028.515329990959
(2017-Oct-02.01532999)
0.00020346 TDB
period 2056.461723341602
5.63
2.5743e-05
7.048e-08
d
yr
n .1750579628659589 2.1914e-09 deg/d
Q 3.415560561783505 2.8504e-08 au
  Orbit Determination Parameters
   # obs. used (total)      616  
   data-arc span      10664 days (29.20 yr)  
   first obs. used      1990-11-23  
   last obs. used      2020-02-03  
   planetary ephem.      DE431  
   SB-pert. ephem.      SB431-N16  
   condition code      0  
   norm. resid. RMS      .58333  
   source      ORB  
   producer      Otto Matic  
   solution date      2020-Feb-23 18:36:54  

Additional Information
 Earth MOID = 1.9081 au 
 Jupiter MOID = 1.8541 au 
 T_jup = 3.193 
[ show covariance matrix ]

Ephemeris | Orbit Diagram | Orbital Elements | Mission Design | Physical Parameters | Discovery Circumstances | Close-Approach Data ]

Physical Parameter Table
Parameter Symbol Value Units Sigma Reference Notes
absolute magnitude H 15.0   n/a MPO432341  
diameter diameter 5.703 km 0.287 urn:nasa:pds:neowise_diameters_albedos::2.0[mainbelt] (http://adsabs.harvard.edu/abs/2011ApJ...741...68M)  
geometric albedo albedo 0.038   0.009 urn:nasa:pds:neowise_diameters_albedos::2.0[mainbelt] (http://adsabs.harvard.edu/abs/2011ApJ...741...68M)  

79182 (1993 FS82)          Discovered 1993-Mar-19 by UESAC at La Silla
Reference: 20040504/Numbers.arcLast Updated: 2004-07-16

[ show close-approach data ]
Alternate Designations
 1993 FS82 = 2001 SJ254 
Ephemeris | Orbit Diagram | Orbital Elements | Mission Design | Physical Parameters | Discovery Circumstances | Close-Approach Data ]
ABOUT SSD CREDITS/AWARDS PRIVACY/COPYRIGHT GLOSSARY LINKS
FirstGov 2020-Oct-24 23:03 UT
(server date/time)  
NASA Home Page
Site Manager:   Ryan S. Park
Webmaster  Alan B. Chamberlin